Date String (YYYY-MM-DD hh:mm:ss) UTC,Instrument flags,Ambient pressure (hPa),Sample flow (lpm),Bypass flow (lpm),Sample temperature (°C),Ambient temperature (°C),ASC tube jacket temperature (°C),LED temperature (°C),Box temperature (°C),Sample RH (%),Span deviation,Mass concentration (μg/m³),Mass concentration (μg/m³),Mass concentration (μg/m³)
DateTimeUTC,F1_M11,P_M11,Q1_M11,Q2_M11,T1_M11,T2_M11,T3_M11,T4_M11,T5_M11,U1_M11,ZSPAN_M11,X0_M11,X2_M11,X1_M11
2022-08-10 08:00:00,,0832.8,4.99,0.00,29.5,27.8,00.0,38.3,31.3,27.4,0000.0,0013.24,0005.81,0004.88
2022-08-10 08:01:00,,0832.7,5.01,0.00,29.5,27.9,00.0,38.3,31.4,27.3,0000.0,0012.07,0005.81,0004.90
2022-08-10 08:02:00,,0832.8,4.99,0.00,29.5,28.1,00.0,38.3,31.4,27.2,0000.0,0012.10,0005.88,0004.92
2022-08-10 08:03:00,,0832.7,4.99,0.00,29.5,28.2,00.0,38.4,31.5,27.2,0000.0,0012.28,0005.92,0004.93
2022-08-10 08:04:00,,0832.8,4.99,0.00,29.6,28.3,00.0,38.4,31.5,27.3,0000.0,0011.39,0005.90,0004.93
2022-08-10 08:05:00,,0832.8,5.00,0.00,29.6,28.4,00.0,38.4,31.5,27.5,0000.0,0011.29,0005.94,0004.95
2022-08-10 08:06:00,,0832.8,5.00,0.00,29.6,28.5,00.0,38.4,31.6,27.4,0000.0,0011.24,0005.94,0004.96
2022-08-10 08:07:00,,0832.8,5.00,0.00,29.6,28.6,00.0,38.4,31.6,27.2,0000.0,0011.75,0005.94,0004.96
2022-08-10 08:08:00,,0832.8,5.00,0.00,29.7,28.6,00.0,38.4,31.6,27.1,0000.0,0013.41,0005.94,0004.95
2022-08-10 08:09:00,,0832.8,5.00,0.00,29.7,28.7,00.0,38.4,31.7,26.9,0000.0,0012.89,0005.94,0004.94
2022-08-10 08:10:00,,0832.8,5.00,0.00,29.7,28.8,00.0,38.5,31.7,26.8,0000.0,0012.91,0005.91,0004.93
2022-08-10 08:11:00,,0832.9,5.00,0.00,29.8,28.8,00.0,38.5,31.7,26.8,0000.0,0012.93,0005.90,0004.95
2022-08-10 08:12:00,,0832.8,5.01,0.00,29.8,28.2,00.0,38.4,31.6,27.0,0000.0,0013.69,0005.92,0004.95
2022-08-10 08:13:00,,0832.8,4.99,0.00,29.7,27.7,00.0,38.4,31.5,27.6,0000.0,0013.72,0005.87,0004.94
2022-08-10 08:14:00,,0832.8,5.00,0.00,29.6,27.5,00.0,38.4,31.4,27.6,0000.0,0014.01,0005.83,0004.94
2022-08-10 08:15:00,,0832.8,5.01,0.00,29.6,27.6,00.0,38.4,31.3,27.5,0000.0,0014.61,0005.83,0004.94
2022-08-10 08:16:00,,0832.8,5.00,0.00,29.5,27.7,00.0,38.4,31.3,27.5,0000.0,0014.73,0005.82,0004.94
2022-08-10 08:17:00,,0832.8,4.99,0.00,29.5,27.8,00.0,38.4,31.4,27.4,0000.0,0015.36,0005.81,0004.93
2022-08-10 08:18:00,,0832.9,5.01,0.00,29.5,27.9,00.0,38.4,31.4,27.5,0000.0,0015.50,0005.83,0004.92
2022-08-10 08:19:00,,0832.9,5.01,0.00,29.5,28.0,00.0,38.4,31.4,27.9,0000.0,0013.92,0005.81,0004.90
2022-08-10 08:20:00,,0832.8,5.00,0.00,29.6,28.2,00.0,38.4,31.5,27.7,0000.0,0014.04,0005.79,0004.88
2022-08-10 08:21:00,,0832.8,5.00,0.00,29.6,28.3,00.0,38.4,31.5,27.6,0000.0,0014.15,0005.79,0004.86
2022-08-10 08:22:00,,0832.8,5.00,0.00,29.6,28.4,00.0,38.4,31.5,27.4,0000.0,0014.16,0005.80,0004.84
2022-08-10 08:23:00,,0832.8,5.01,0.00,29.6,28.5,00.0,38.4,31.6,27.4,0000.0,0013.45,0005.77,0004.82
2022-08-10 08:24:00,,0832.8,5.00,0.00,29.7,28.5,00.0,38.4,31.6,27.3,0000.0,0013.30,0005.77,0004.80
2022-08-10 08:25:00,,0832.8,5.00,0.00,29.7,28.6,00.0,38.4,31.7,27.2,0000.0,0013.41,0005.80,0004.79
2022-08-10 08:26:00,,0832.8,4.99,0.00,29.7,28.7,00.0,38.5,31.7,27.1,0000.0,0012.79,0005.77,0004.78
2022-08-10 08:27:00,,0832.8,5.01,0.00,29.7,28.7,00.0,38.5,31.7,27.1,0000.0,0013.22,0005.79,0004.75
2022-08-10 08:28:00,,0832.8,4.99,0.00,29.8,28.7,00.0,38.5,31.7,27.0,0000.0,0012.83,0005.81,0004.73
2022-08-10 08:29:00,,0832.9,4.99,0.00,29.8,28.2,00.0,38.5,31.6,27.0,0000.0,0012.79,0005.82,0004.72
2022-08-10 08:30:00,,0832.8,5.01,0.00,29.7,27.6,00.0,38.5,31.4,27.1,0000.0,0013.12,0005.83,0004.72
2022-08-10 08:31:00,,0832.8,5.00,0.00,29.7,27.5,00.0,38.4,31.4,27.2,0000.0,0013.58,0005.83,0004.72
2022-08-10 08:32:00,,0832.9,5.00,0.00,29.6,27.5,00.0,38.4,31.3,27.3,0000.0,0013.78,0005.86,0004.73
2022-08-10 08:33:00,,0832.8,5.00,0.00,29.5,27.6,00.0,38.4,31.3,27.2,0000.0,0013.99,0005.84,0004.73
2022-08-10 08:34:00,,0832.8,4.99,0.00,29.5,27.7,00.0,38.4,31.4,27.2,0000.0,0013.90,0005.84,0004.74
2022-08-10 08:35:00,,0832.8,5.00,0.00,29.5,27.9,00.0,38.4,31.4,27.2,0000.0,0014.12,0005.85,0004.73
2022-08-10 08:36:00,,0832.8,5.01,0.00,29.5,28.0,00.0,38.4,31.4,27.2,0000.0,0013.78,0005.81,0004.73
2022-08-10 08:37:00,,0832.8,4.99,0.00,29.6,28.1,00.0,38.4,31.5,27.1,0000.0,0013.66,0005.84,0004.72
2022-08-10 08:38:00,,0832.8,5.00,0.00,29.6,28.2,00.0,38.4,31.5,27.1,0000.0,0013.16,0005.81,0004.75
2022-08-10 08:39:00,,0832.8,5.00,0.00,29.6,28.3,00.0,38.4,31.5,27.0,0000.0,0012.81,0005.76,0004.75
2022-08-10 08:40:00,,0832.8,5.01,0.00,29.6,28.4,00.0,38.4,31.5,27.0,0000.0,0012.34,0005.73,0004.75
2022-08-10 08:41:00,,0832.8,4.99,0.00,29.6,28.5,00.0,38.4,31.6,26.9,0000.0,0012.12,0005.70,0004.74
2022-08-10 08:42:00,,0832.8,5.00,0.00,29.7,28.6,00.0,38.4,31.6,26.9,0000.0,0012.11,0005.69,0004.75
2022-08-10 08:43:00,,0832.8,5.01,0.00,29.7,28.6,00.0,38.5,31.7,26.8,0000.0,0011.86,0005.67,0004.73
2022-08-10 08:44:00,,0832.9,5.00,0.00,29.7,28.7,00.0,38.5,31.7,26.8,0000.0,0011.92,0005.68,0004.73
2022-08-10 08:45:00,,0832.9,5.00,0.00,29.7,28.8,00.0,38.5,31.7,26.8,0000.0,0012.26,0005.70,0004.73
2022-08-10 08:46:00,,0832.9,5.00,0.00,29.8,28.8,00.0,38.5,31.8,26.7,0000.0,0012.19,0005.71,0004.73
2022-08-10 08:47:00,,0832.9,5.00,0.00,29.8,28.7,00.0,38.5,31.7,26.7,0000.0,0012.49,0005.74,0004.74
2022-08-10 08:48:00,,0832.9,5.00,0.00,29.8,28.0,00.0,38.5,31.6,26.7,0000.0,0012.77,0005.74,0004.75
2022-08-10 08:49:00,,0832.9,5.01,0.00,29.7,27.5,00.0,38.4,31.5,26.8,0000.0,0013.33,0005.69,0004.75
2022-08-10 08:50:00,,0833.0,4.99,0.00,29.6,27.5,00.0,38.4,31.4,26.9,0000.0,0013.66,0005.76,0004.77
2022-08-10 08:51:00,,0833.0,5.01,0.00,29.6,27.5,00.0,38.4,31.3,27.0,0000.0,0013.70,0005.77,0004.77
2022-08-10 08:52:00,,0833.0,4.99,0.00,29.6,27.6,00.0,38.4,31.3,27.0,0000.0,0013.63,0005.83,0004.78
2022-08-10 08:53:00,,0833.1,5.01,0.00,29.5,27.8,00.0,38.4,31.4,27.0,0000.0,0012.95,0005.87,0004.78
2022-08-10 08:54:00,,0833.0,5.00,0.00,29.5,27.9,00.0,38.4,31.4,27.0,0000.0,0012.32,0005.87,0004.79
2022-08-10 08:55:00,,0833.0,4.99,0.00,29.6,28.0,00.0,38.4,31.4,27.0,0000.0,0013.15,0005.83,0004.79
2022-08-10 08:56:00,,0833.0,5.00,0.00,29.6,28.2,00.0,38.4,31.5,27.0,0000.0,0012.91,0005.83,0004.80
2022-08-10 08:57:00,,0833.1,5.00,0.00,29.6,28.3,00.0,38.4,31.5,27.0,0000.0,0012.78,0005.80,0004.81
2022-08-10 08:58:00,,0833.0,5.00,0.00,29.6,28.4,00.0,38.4,31.5,26.9,0000.0,0012.79,0005.77,0004.80
2022-08-10 08:59:00,,0833.0,5.00,0.00,29.6,28.5,00.0,38.4,31.6,26.8,0000.0,0013.38,0005.77,0004.79
